Showing default

EUTE 117W B, 41589

Orbit data source: Space-Track

EUTE 117W B, 41589 is a payload satellite owned by Eutelsat Americas (FR) in GEO that was launched on Wed, 15 Jun 2016 UTC via an FALCON 9 launch vehicle from the Air Force Eastern Test Range (AFETR). Payload-class satellites include a variety of spacecraft equipped with specific instruments for various scientific and technological missions. These include communications satellites like Starlink; space stations such as the ISS; scientific satellites like the Hubble; Earth observation satellites from companies like Planet Labs, Umbra, and HawkEye 360; GPS; miniature CubeSats for education and research; and military/defense satellites.

Loading next visibility...
Identifier
41589, 2016-038B
Orbit
GEO
Country
Flag of FRFR / EUTE
Related business
Manufacturer
Airbus/Toulouse
Mission
Operational Commercial Communications
Bus & Motor
BSS-702SP, XIPS-25
Mass
1,963 kg wet, ~1,500 kg dry
Launch date (UTC)
2016-06-15 (10 years ago)
Launch vehicle
FALCON 9
Launch site
Air Force Eastern Test Range (AFETR)
Object type
Payload
Rocket body
Debris
Shape & HBR
Box + 2 Pan, 16.3 m
Radar Cross Section
29.478 m², Large (>1 m²)

Expand to show TLE details & history
Last TLE update: 2 days ago

TLE from 2 days ago
0 EUTE 117W B
1 41589U 16038B   26171.36572507 -.00000016  00000-0  00000+0 0  9994
2 41589   0.0119 154.9940 0000496 333.4232 154.8419  1.00272242 36697
Epoch: 2026-06-20T08:46Z
TLE epoch observation values (Epoch: 2026-06-20T08:46:38.646Z)
Latitude
0.00559°
Longitude
-116.9686°
Altitude
35,787.855 km
Speed
3.075 km/s
True Right ascension
18h 53m 05s
True Declination
0° 00' 20"
Sunlit
Object was in daylight at epoch
Visualization orbit readout
Latitude
Unknown
Longitude
Unknown
Altitude
Unknown
Speed
Unknown
Apparent Right ascension
Unknown
Apparent Declination
Unknown
Sunlit
N/A
Visualization observer readout
Local Sidereal Time
23:18:50
Azimuth
Unknown
Elevation
Unknown
Doppler factor
Unknown
Orbital elements
Apogee altitude
35,789.629 km
Perigee altitude
35,785.446 km
Semi-major axis
42,165.674 km
Eccentricity
0.00005
Inclination
0.0119°
RAAN
154.994°
Arg. of periapsis
333.4232°
True anomaly
154.84432°
Mean anomaly
154.8419°
Eccentric anomaly
154.84311°
Mean motion
0.25067 °/min
Orbital period
1,436.14 mins
BSTAR
0
Loading maneuver chart data...
Computing Atmospheric mass density...
Loading historical data...
Loading historical data...
Loading historical data...
Loading historical data...
Loading historical data...
Loading historical data...
Loading historical data...
Other satellites on launch #38 in the year 2016 (2016-06-15 UTC)

Documentation

Showing up to 5 results
|